[[[{"header":{"parameterUnit":"kt","parameterCategory":2,"dx":1,"dy":1,"la1":30.253999710083008,"la2":30.299108505249023,"lo1":-89.0895004272461,"lo2":-89.04439544677734,"nx":28,"ny":28,"refTime":"2022-10-26T21:00:00:Z","depth":0,"parameterNumber":1,"parameterNumberName":"U-component_of_WINDS"},"data":[-7.3419,-7.3626,-7.3586,-7.3803,-7.3804,-7.3945,-7.3983,-7.4028,-7.4053,-7.4216,-7.4303,-7.4285,-7.4294,-7.4387,-7.4479,-7.4468,-7.4509,-7.461,-7.458,-7.4165,-7.4105,-7.4048,-7.3995,-7.462,-7.4621,-7.5015,-7.5018,-7.5021,-7.3112,-7.3115,-7.3219,-7.3293,-7.3381,-7.3259,-7.3308,-7.339,-7.352,-7.3554,-7.3638,-7.3779,-7.3885,-7.386,-7.3955,-7.405,-7.3998,-7.4078,-7.407,-7.4073,-7.3628,-7.3573,-7.4118,-7.4118,-7.4118,-7.4118,-7.4118,-7.4118,-7.2541,-7.2668,-7.2689,-7.2802,-7.2829,-7.2879,-7.2992,-7.2966,-7.3068,-7.3163,-7.3097,-7.3243,-7.3269,-7.3366,-7.3389,-7.3501,-7.3405,-7.348,-7.3499,-7.3519,-7.3546,-7.2979,-7.3516,-7.3514,-7.3512,-7.3511,-7.351,0,-7.2111,-7.2069,-7.2167,-7.2254,-7.2334,-7.2397,-7.2449,-7.2518,-7.2416,-7.2505,-7.2629,-7.2695,-7.2823,-7.2936,-7.3017,-7.3025,-7.2908,-7.2893,-7.2944,-7.2978,-7.2996,-7.2987,-7.2261,-7.2878,-7.2872,-7.2868,-7.2865,-7.2863,-7.1532,-7.1686,-7.1689,-7.1764,-7.1782,-7.1904,-7.1968,-7.1867,-7.194,-7.1988,-7.2106,-7.2217,-7.2301,-7.2509,-7.2477,-7.2574,-7.2518,-7.2757,-7.2532,-7.2557,-7.252,-7.2511,-7.2525,-7.2803,-7.2811,-7.2817,-7.2822,0,-7.1208,-7.1143,-7.1369,-7.1357,-7.1359,-7.1526,-7.1515,-7.1639,-7.16,-7.1764,-7.1796,-7.1737,-7.1862,-7.1791,-7.1921,-7.188,-7.215,-7.2094,-7.2139,-7.2123,-7.2329,-7.231,-7.3012,-7.3097,-7.245,-7.2457,-7.2462,0,-7.0688,-7.0895,-7.0784,-7.0919,-7.1144,-7.1036,-7.1262,-7.1251,-7.1272,-7.14,-7.1255,-7.1379,-7.1269,-7.1383,-7.1323,-7.1531,-7.1556,-7.1537,-7.1519,-7.155,-7.1553,-7.1588,-7.1558,-7.1474,-7.147,-7.1467,-7.1464,0,-7.0188,-7.0373,-7.0591,-7.0623,-7.0633,-7.0738,-7.0747,-7.077,-7.0836,-7.0909,-7.0949,-7.1043,-7.1095,-7.1169,-7.1092,-7.0941,-7.1346,-7.1123,-7.1326,-7.1328,-7.142,-7.1416,-7.2054,-7.146,-7.1459,-7.1458,-7.1456,0,-6.9758,-6.9834,-7.0162,-7.0165,-7.0218,-7.0363,-7.0446,-7.0554,-7.059,-7.0561,-7.0618,-7.0513,-7.0691,-7.0475,-7.0717,-7.0543,-7.0602,-7.06,-7.0613,-7.0625,-7.0385,-7.0754,-7.1369,-7.143,-7.0634,-7.0627,-7.0621,0,-6.9203,-6.9517,-6.9426,-6.9741,-6.9875,-6.9701,-6.986,-6.9896,-6.9871,-6.9981,-6.9952,-7.008,-6.9904,-6.9934,-7.0064,-7.004,-7.0267,-7.0007,-7.0167,-7.0174,-7.0161,-7.0727,-7.0836,-7.1242,-7.0533,-7.0542,-7.0549,0,-6.8765,-6.8776,-6.8839,-6.8869,-6.8901,-6.9014,-6.9197,-6.9299,-6.9377,-6.9436,-6.9586,-6.9765,-6.9638,-6.9691,-6.9617,-6.9756,-7.011,-6.9602,-6.9601,-6.9695,-7.0483,-7.0585,-7.0654,-7.0029,-7.004,-7.0048,-7.0479,0,-6.8126,-6.8275,-6.8442,-6.8519,-6.8595,-6.8789,-6.8713,-6.8803,-6.8722,-6.8691,-6.8912,-6.8926,-6.9033,-6.9093,-6.9018,-6.9358,-6.929,-6.9155,-6.8941,-6.9313,-6.9453,-6.951,-6.8738,-6.8731,-6.8725,-6.872,0,0,-6.7611,-6.7823,-6.772,-6.7894,-6.7952,-6.777,-6.7984,-6.8019,-6.8098,-6.8141,-6.802,-6.8276,-6.8295,-6.8571,-6.8681,-6.8726,-6.8779,-6.8654,-6.9136,-6.9183,-6.9226,-6.9377,-6.9438,-6.871,-6.8708,-6.8706,-6.8705,0,-6.7362,-6.7383,-6.7596,-6.7627,-6.767,-6.7626,-6.7678,-6.7689,-6.768,-6.7897,-6.7745,-6.7869,-6.808,-6.8117,-6.8164,-6.8617,-6.8497,-6.8656,-6.8924,-6.9082,-6.9136,-6.9184,-6.9344,-6.9402,-6.8691,-6.8692,-6.8692,0,-6.6916,-6.6923,-6.7018,-6.7142,-6.717,-6.7315,-6.7069,-6.7235,-6.7341,-6.7136,-6.7355,-6.7354,-6.7399,-6.7672,-6.7792,-6.7685,-6.8244,-6.8056,-6.809,-6.8102,-6.8251,-6.8317,-6.8375,-6.7608,-6.7604,-6.7601,0,0,-6.6711,-6.685,-6.6827,-6.7084,-6.7111,-6.7051,-6.7121,-6.7048,-6.7092,-6.7111,-6.7107,-6.7155,-6.7275,-6.7357,-6.7466,-6.7777,-6.7777,-6.7926,-6.7977,-6.8019,-6.8054,-6.8214,-6.8279,-6.7588,-6.7588,-6.7587,0,0,-6.6614,-6.6597,-6.6507,-6.6795,-6.6842,-6.6837,-6.6997,-6.6888,-6.6978,-6.6948,-6.6834,-6.6843,-6.7096,-6.7102,-6.6935,-6.7389,-6.7177,-6.7216,-6.7376,-6.7439,-6.7489,-6.7483,-6.6687,0,0,0,0,0,-6.6321,-6.6597,-6.6517,-6.6554,-6.6712,-6.6882,-6.6901,-6.6813,-6.6663,-6.6791,-6.677,-6.6637,-6.6987,-6.6836,-6.6875,-6.7064,-6.7419,-6.7449,-6.7477,-6.7756,-6.7823,-6.788,0,0,0,0,0,0,-6.6334,-6.638,-6.6509,-6.6518,-6.6552,-6.6871,-6.6598,-6.6582,-6.6647,-6.6619,-6.6645,-6.6638,-6.6567,-6.681,-6.6847,-6.7028,-6.6675,-6.7431,-6.7456,-6.7479,-6.7779,-6.7834,-6.7881,0,0,0,0,0,-6.6345,-6.6381,-6.6659,-6.6513,-6.6544,-6.6492,-6.6587,-6.6571,-6.6621,-6.659,-6.6578,-6.6548,-6.6574,-6.6599,-6.6832,-6.7014,-6.6649,-6.6663,-6.7447,-6.7467,-6.7485,-6.7806,0,0,0,0,0,0,-6.6353,-6.6368,-6.6663,-6.6668,-6.6402,-6.6472,-6.648,-6.6563,-6.6585,-6.6577,-6.6486,-6.6463,-6.6583,-6.66,-6.662,-6.7014,-6.6628,-6.6642,-6.6651,-6.7462,-6.7478,-6.7492,0,0,0,0,0,0,-6.6348,-6.6375,-6.6666,-6.653,-6.652,-6.6455,-6.6462,-6.6648,-6.6588,-6.648,-6.6461,-6.6475,-6.6553,-6.6603,-6.6618,-6.6911,-6.6611,-6.6625,-6.6634,-6.664,-6.7475,-6.7488,0,0,0,0,0,0,-6.6357,-6.638,-6.6528,-6.6521,-6.651,-6.6569,-6.6617,-6.6785,-6.6471,-6.6482,-6.6441,-6.6426,-6.6561,-6.6573,-6.6617,-6.6906,-6.691,-6.6612,-6.6621,-6.6628,-6.6632,0,0,0,0,0,0,0,-6.6365,-6.6233,-6.6628,-6.6512,-6.6503,-6.6723,-6.6724,-6.6726,-6.6468,-6.6456,-6.6444,-6.6432,-6.6534,-6.6549,-6.6564,-6.6901,0,0,-6.661,-6.6617,0,0,0,0,0,0,0,0,-6.6221,-6.623,-6.6628,-6.6629,-6.6631,-6.6723,-6.6724,-6.6725,-6.6466,-6.6456,-6.6446,-6.6437,-6.6538,-6.655,-6.6562,0,0,0,0,0,0,0,0,0,0,0,0,0,0,0,-6.6628,-6.6629,0,-6.6723,-6.6724,-6.6725,-6.6465,-6.6456,-6.6448,-6.6441,-6.6541,-6.6551,-6.6561,0,0,0,0,0,0,0,0,0,0,0,0,0,0,0,0,0,0,0,0,0,0,0,0,0,0,0,0,0,0,0,0,0,0,0,0,0,0,0,0,0,0,0,0,0,0,0,0,0,0,0,0,0,0,0,0,0,0,0,0,0,0,0,0,0,0,0,0,0]}],[{"header":{"parameterUnit":"kt","parameterCategory":2,"dx":1,"dy":1,"la1":30.253999710083008,"la2":30.299108505249023,"lo1":-89.0895004272461,"lo2":-89.04439544677734,"nx":28,"ny":28,"refTime":"2022-10-26T21:00:00:Z","depth":0,"parameterNumber":2,"parameterNumberName":"V-component_of_WINDS"},"data":[-8.7073,-8.7214,-8.7225,-8.7388,-8.7425,-8.7537,-8.758,-8.7635,-8.7682,-8.7813,-8.789,-8.7912,-8.7959,-8.805,-8.8131,-8.8138,-8.817,-8.8212,-8.8212,-8.8022,-8.7996,-8.7971,-8.7938,-8.822,-8.822,-8.8406,-8.8408,-8.8409,-8.6927,-8.6966,-8.7058,-8.7153,-8.7229,-8.7196,-8.7267,-8.7332,-8.7432,-8.7491,-8.7568,-8.7683,-8.7775,-8.7809,-8.7897,-8.7958,-8.7945,-8.7981,-8.7974,-8.7981,-8.7779,-8.7745,-8.799,-8.799,-8.799,-8.799,-8.7989,-8.7989,-8.6664,-8.6749,-8.6814,-8.6913,-8.6963,-8.7026,-8.7107,-8.7134,-8.7221,-8.7319,-8.7313,-8.7425,-8.7483,-8.7595,-8.7634,-8.7719,-8.768,-8.7721,-8.773,-8.7739,-8.7747,-8.747,-8.7735,-8.7734,-8.7733,-8.7733,-8.7732,0,-8.6474,-8.6478,-8.6567,-8.6659,-8.6731,-8.6803,-8.687,-8.692,-8.6928,-8.7,-8.7103,-8.7163,-8.7281,-8.7376,-8.7462,-8.7494,-8.7461,-8.7461,-8.7488,-8.749,-8.748,-8.7483,-8.7149,-8.7452,-8.745,-8.7448,-8.7447,-8.7446,-8.6205,-8.6305,-8.6379,-8.6439,-8.6479,-8.6578,-8.6637,-8.6638,-8.6701,-8.6781,-8.6854,-8.6952,-8.7029,-8.719,-8.7217,-8.7304,-8.7288,-8.7402,-8.7301,-8.7299,-8.7285,-8.7277,-8.7285,-8.7421,-8.7424,-8.7427,-8.7429,0,-8.6052,-8.6071,-8.6228,-8.6291,-8.631,-8.6412,-8.6464,-8.6548,-8.6565,-8.6682,-8.6709,-8.6735,-8.6835,-8.6844,-8.696,-8.6961,-8.7121,-8.7106,-8.71,-8.7096,-8.7196,-8.7184,-8.7527,-8.757,-8.7283,-8.7286,-8.7288,0,-8.5828,-8.5959,-8.5978,-8.6069,-8.6212,-8.621,-8.6351,-8.6381,-8.6434,-8.6526,-8.6494,-8.658,-8.6579,-8.6666,-8.6668,-8.6801,-8.6824,-8.6831,-8.6829,-8.6832,-8.6831,-8.6861,-8.6846,-8.6827,-8.6826,-8.6824,-8.6823,0,-8.5583,-8.5749,-8.5897,-8.5937,-8.6017,-8.6085,-8.6121,-8.6181,-8.624,-8.6317,-8.6354,-8.6444,-8.6492,-8.6561,-8.6562,-8.6493,-8.6727,-8.6632,-8.6734,-8.6734,-8.6783,-8.6779,-8.7083,-8.6821,-8.682,-8.6819,-8.6819,0,-8.5403,-8.5487,-8.57,-8.5765,-8.5808,-8.5906,-8.5995,-8.6081,-8.6146,-8.6155,-8.6216,-8.6194,-8.6316,-8.622,-8.6385,-8.6293,-8.6341,-8.636,-8.6368,-8.6376,-8.6267,-8.6432,-8.6725,-8.6753,-8.6386,-8.6383,-8.6379,0,-8.5115,-8.5337,-8.5338,-8.5541,-8.5644,-8.5601,-8.5708,-8.5769,-8.5789,-8.5877,-8.5898,-8.5998,-8.5929,-8.5961,-8.6042,-8.6067,-8.6186,-8.6052,-8.617,-8.6174,-8.615,-8.6421,-8.646,-8.666,-8.6334,-8.6338,-8.6342,0,-8.4894,-8.4994,-8.5031,-8.5076,-8.5159,-8.5246,-8.5371,-8.5471,-8.5529,-8.5602,-8.5703,-8.5846,-8.5798,-8.5852,-8.5845,-8.5929,-8.6105,-8.5866,-8.5867,-8.5905,-8.6313,-8.6349,-8.6383,-8.6081,-8.6086,-8.6091,-8.6306,0,-8.4611,-8.4726,-8.4827,-8.4931,-8.5001,-8.513,-8.5144,-8.5214,-8.52,-8.522,-8.5371,-8.5424,-8.5524,-8.5567,-8.5555,-8.5745,-8.5714,-8.5662,-8.5567,-8.5746,-8.5816,-8.5845,-8.546,-8.5458,-8.5455,-8.5453,0,0,-8.4327,-8.4494,-8.4492,-8.4616,-8.4674,-8.4628,-8.4764,-8.4815,-8.492,-8.4959,-8.4907,-8.5116,-8.5161,-8.5343,-8.54,-8.5442,-8.5475,-8.5413,-8.5661,-8.5685,-8.5706,-8.5781,-8.5812,-8.5449,-8.5448,-8.5448,-8.5447,0,-8.4227,-8.4281,-8.4419,-8.4472,-8.4552,-8.4567,-8.46,-8.4669,-8.4688,-8.4839,-8.4796,-8.4889,-8.5058,-8.511,-8.5158,-8.5393,-8.5353,-8.5423,-8.5543,-8.5638,-8.5664,-8.5688,-8.5767,-8.5796,-8.5441,-8.5442,-8.5442,0,-8.4008,-8.4062,-8.4131,-8.4266,-8.4318,-8.4426,-8.433,-8.4451,-8.453,-8.4472,-8.4622,-8.4653,-8.4724,-8.4897,-8.4975,-8.4929,-8.5241,-8.5147,-8.5161,-8.5169,-8.5261,-8.5293,-8.5321,-8.495,-8.4948,-8.4946,0,0,-8.3919,-8.4028,-8.4085,-8.4246,-8.4281,-8.4306,-8.4366,-8.4359,-8.4427,-8.4454,-8.4494,-8.4559,-8.4656,-8.472,-8.4813,-8.5001,-8.5013,-8.5086,-8.5109,-8.5128,-8.5146,-8.5243,-8.5274,-8.494,-8.4939,-8.4939,0,0,-8.3875,-8.3949,-8.3925,-8.4114,-8.4181,-8.4246,-8.4342,-8.4312,-8.4398,-8.4384,-8.4376,-8.4393,-8.4555,-8.4587,-8.4497,-8.4778,-8.4684,-8.4706,-8.4751,-8.478,-8.4803,-8.4791,-8.4404,0,0,0,0,0,-8.378,-8.394,-8.3917,-8.3951,-8.4122,-8.4259,-8.4281,-8.4279,-8.4212,-8.4287,-8.4315,-8.4271,-8.4536,-8.4456,-8.4488,-8.4588,-8.4854,-8.4869,-8.4883,-8.4986,-8.5017,-8.5043,0,0,0,0,0,0,-8.3794,-8.3835,-8.3913,-8.3985,-8.4023,-8.4254,-8.4139,-8.4143,-8.4204,-8.4193,-8.4267,-8.4273,-8.4272,-8.4439,-8.4468,-8.4563,-8.4394,-8.486,-8.4873,-8.4884,-8.4997,-8.5022,-8.5043,0,0,0,0,0,-8.3804,-8.3838,-8.4112,-8.3983,-8.4016,-8.4052,-8.4133,-8.4135,-8.4182,-8.4226,-8.4231,-8.4176,-8.4275,-8.4299,-8.4456,-8.455,-8.4374,-8.4384,-8.4868,-8.4878,-8.4887,-8.5009,0,0,0,0,0,0,-8.3812,-8.384,-8.4119,-8.4129,-8.3923,-8.4039,-8.4058,-8.4129,-8.4211,-8.4217,-8.4133,-8.4124,-8.428,-8.4297,-8.4316,-8.4546,-8.4357,-8.4368,-8.4375,-8.4876,-8.4884,-8.4891,0,0,0,0,0,0,-8.3821,-8.3849,-8.4124,-8.4049,-8.405,-8.4027,-8.4044,-8.4177,-8.4212,-8.4113,-8.4108,-8.4128,-8.425,-8.4297,-8.4311,-8.4519,-8.4345,-8.4355,-8.4363,-8.4367,-8.4882,-8.4889,0,0,0,0,0,0,-8.3833,-8.3856,-8.4046,-8.4047,-8.4048,-8.4158,-8.4144,-8.4318,-8.4151,-8.411,-8.4136,-8.4129,-8.4251,-8.4265,-8.4308,-8.451,-8.4517,-8.4345,-8.4352,-8.4357,-8.4361,0,0,0,0,0,0,0,-8.3842,-8.3688,-8.4061,-8.4046,-8.4046,-8.422,-8.4223,-8.4225,-8.4149,-8.4143,-8.4137,-8.4132,-8.4285,-8.4296,-8.4308,-8.4503,0,0,-8.4344,-8.4349,0,0,0,0,0,0,0,0,-8.3679,-8.3686,-8.4061,-8.4063,-8.4065,-8.422,-8.4223,-8.4225,-8.4148,-8.4143,-8.4139,-8.4134,-8.4288,-8.4297,-8.4307,0,0,0,0,0,0,0,0,0,0,0,0,0,0,0,-8.4061,-8.4063,0,-8.4221,-8.4222,-8.4224,-8.4148,-8.4144,-8.414,-8.4136,-8.429,-8.4298,-8.4306,0,0,0,0,0,0,0,0,0,0,0,0,0,0,0,0,0,0,0,0,0,0,0,0,0,0,0,0,0,0,0,0,0,0,0,0,0,0,0,0,0,0,0,0,0,0,0,0,0,0,0,0,0,0,0,0,0,0,0,0,0,0,0,0,0,0,0,0,0]}]]]